Regional Weather Roundup
Issued by NWS

Home | Current Version | Previous Version | Graphics & Text | Print | Product List | Glossary On
Versions: 1 2 3 4 5 6 7 8 9 10 11 12 13 14 15 16 17 18 19 20 21 22 23 24 25 26 27 28 29 30 31 32 33 34 35 36 37 38 39 40 41 42 43 44 45 46 47 48 49 50
000
ASUS43 KOAX 201702
RWRNE

WEATHER ROUNDUP FOR NEBRASKA
NATIONAL WEATHER SERVICE OMAHA NE
1200 PM CDT SUN MAY 20 2018

NOTES: SATELLITE DATA IS BEING USED TO AUGMENT CLOUD COVER ABOVE
       12000 FEET.
       "FAIR" INDICATES FEW OR NO CLOUDS BELOW 12,000 FEET WITH NO
       SIGNIFICANT WEATHER AND/OR OBSTRUCTIONS TO VISIBILITY.


NEZ001>004-019>022-054>056-201800-
NEBRASKA PANHANDLE

CITY           SKY/WX    TMP DP  RH WIND       PRES   REMARKS
SCOTTSBLUFF    SUNNY     55  40  56 S7        30.24F
ALLIANCE       MOSUNNY   54  35  48 E5        30.24S
CHADRON        PTSUNNY   55  36  48 SE6       30.24F
GORDON         FAIR      55  35  46 CALM      30.24F
KIMBALL        CLOUDY    51  39  62 S5        30.25F
SIDNEY         SUNNY     53  35  50 VRB3      30.25S
$$

NEZ057>060-069>072-079>082-201800-
SOUTHWEST NEBRASKA

CITY           SKY/WX    TMP DP  RH WIND       PRES   REMARKS
NORTH PLATTE   CLOUDY    56  46  69 NE8       30.21S
IMPERIAL       CLOUDY    55  43  63 NW7       30.22S
LEXINGTON      CLOUDY    55  51  86 N9        30.19S
MCCOOK         CLOUDY    53  48  83 NE9       30.20R
OGALLALA       CLOUDY    58  42  55 N6        30.22S
$$

NEZ005>010-023>029-035>040-094-201800-
NORTH CENTRAL NEBRASKA

CITY           SKY/WX    TMP DP  RH WIND       PRES   REMARKS
VALENTINE      CLOUDY    56  38  50 NE8       30.23F
AINSWORTH      CLOUDY    54  43  66 N8        30.22S
BROKEN BOW     CLOUDY    55  48  77 N10       30.19S
O`NEILL        CLOUDY    54  47  78 N10       30.22S
ORD            LGT RAIN  52  51  97 N10       30.19R FOG
THEDFORD       PTSUNNY   56  45  65 N8        30.22S
$$

NEZ041-046>049-061>064-073>077-083>087-201800-
SOUTH CENTRAL NEBRASKA

CITY           SKY/WX    TMP DP  RH WIND       PRES   REMARKS
GRAND ISLAND   CLOUDY    55  53  93 N12       30.17S
AURORA         CLOUDY    54  54 100 N14       30.15F
HASTINGS       CLOUDY    56  54  93 NE13      30.16S FOG
HEBRON         CLOUDY    58  56  91 N7        30.12S FOG
HOLDREGE       CLOUDY    54  53  97 N12       30.17R
KEARNEY        CLOUDY    54  53  97 N15       30.17S FOG
YORK           LGT RAIN  54  54 100 N13       30.14F
$$

NEZ011>018-030>034-042>045-201800-
NORTHEAST NEBRASKA

CITY           SKY/WX    TMP DP  RH WIND       PRES   REMARKS
NORFOLK        CLOUDY    52  50  93 N10       30.17R
ALBION         CLOUDY    54  52  94 N9        30.19S FOG
BLAIR          CLOUDY    55  53  94 NE10G17   30.13F
COLUMBUS       CLOUDY    54  52  93 N10       30.17S
FREMONT        LGT RAIN  55  53  94 N6        30.16R
TEKAMAH        LGT RAIN  54  50  86 N10       30.16S
WAYNE          CLOUDY    53  52  97 N9        30.18S
$$

NEZ050>053-065>068-078-088>093-201800-
SOUTHEAST NEBRASKA

CITY           SKY/WX    TMP DP  RH WIND       PRES   REMARKS
LINCOLN        CLOUDY    57  53  86 N13       30.13S
OMAHA EPPLEY   LGT RAIN  57  52  83 N7        30.14R
BEATRICE       CLOUDY    60  59  95 N10       30.10S FOG
FALLS CITY     CLOUDY    68  60  75 NE6       30.07F
NEBRASKA CITY  CLOUDY    62  59  90 NE12      30.11F
PLATTSMOUTH    CLOUDY    59  54  82 NE12G17   30.12F
$$

NEZ044-045-051>053-067-201800-
OMAHA AREA

CITY           SKY/WX    TMP DP  RH WIND       PRES   REMARKS
OMAHA EPPLEY   LGT RAIN  57  52  83 N7        30.14R
BLAIR          CLOUDY    55  53  94 NE10G17   30.13F
FREMONT        LGT RAIN  55  53  94 N6        30.16R
MILLARD        CLOUDY    58  54  86 NE5       30.14R
OFFUTT AFB     CLOUDY    57  55  91 NE8       30.12S
PLATTSMOUTH    CLOUDY    59  54  82 NE12G17   30.12F
WAHOO          CLOUDY    56  52  88 N14       30.14F
$$




USA.gov is the U.S. government's official web portal to all federal, state and local government web resources and services.